Weather History for KVUO - October, 2012

Change the Weather History Date:

Thursday, October 18, 2012

  Actual Average Record
Temperature  
Mean Temperature 55 °F 53 °F  
Max Temperature 68 °F 62 °F 81 °F (1940)
Min Temperature 42 °F 43 °F 27 °F (1905)
Degree Days  
Heating Degree Days 10    
Month to date heating degree days 148  
Since 1 July heating degree days 231  
Cooling Degree Days 0    
Month to date cooling degree days 0  
Year to date cooling degree days 398  
Growing Degree Days 4 (Base 50)    
Moisture  
Dew Point 44 °F    
Average Humidity 71    
Maximum Humidity 100    
Minimum Humidity 42    
Precipitation  
Precipitation 0.03 in 0.11 in 1.31 in (1899)
Month to date precipitation 1.45 1.62  
Year to date precipitation 28.18 25.01  
Snow  
Snow 0.00 in - - ()
Month to date snowfall 0.0  
Snow Depth 0.00 in    
Sea Level Pressure  
Sea Level Pressure 30.07 in    
Wind  
Wind Speed 2 mph (ESE)    
Max Wind Speed 10 mph    
Max Gust Speed 16 mph    
Visibility 5 miles    
Events Fog , Rain    
T = Trace of Precipitation, MM = Missing Value Source: NWS Daily Summary

Daily Weather History Graph

Daily Weather History Graph

Search for Another Location

Airport or City:

Trip Planner

Search our weather history database for the weather conditions in past years. The results will help you decide how hot, cold, wet, or windy it might be!

Date:

Astronomy

Oct. 18, 2012 Rise Set
Actual Time 7:31 AM PDT 6:18 PM PDT
Civil Twilight 7:01 AM PDT 6:48 PM PDT
Nautical Twilight 6:27 AM PDT 7:23 PM PDT
Astronomical Twilight 5:52 AM PDT 7:57 PM PDT
Moon 11:30 AM PDT (10/18) 8:47 PM PDT (10/18)
Length of Visible Light 11h 47m
Length of Day
10h 46m
Waxing Crescent, 15% of the Moon is Illuminated
Oct 18
Waxing Crescent
Oct 21
First Quarter
Oct 29
Full
Nov 6
Last Quarter
Nov 13
New

Hourly Weather History & Observations

Time (PDT) Temp. Windchill Dew Point Humidity Pressure Visibility Wind Dir Wind Speed Gust Speed Precip Events Conditions
12:53 AM 44.1 °F - 41.0 °F 89% 30.21 in 10.0 mi Calm Calm - N/A   Clear
1:53 AM 42.1 °F - 39.9 °F 92% 30.20 in 9.0 mi Calm Calm - N/A   Clear
2:51 AM 44.6 °F - 42.8 °F 93% 30.20 in 10.0 mi Calm Calm - N/A   Scattered Clouds
2:53 AM 45.0 °F - 43.0 °F 93% 30.20 in 10.0 mi Calm Calm - N/A   Scattered Clouds
3:18 AM 44.6 °F - 42.8 °F 93% 30.19 in 9.0 mi Calm Calm - N/A   Mostly Cloudy
3:53 AM 46.0 °F - 44.1 °F 93% 30.18 in 4.0 mi Calm Calm - N/A   Overcast
4:12 AM 44.6 °F - 44.6 °F 100% 30.17 in 0.8 mi Calm Calm - N/A   Overcast
4:53 AM 45.0 °F - 44.1 °F 97% 30.16 in 0.5 mi Calm Calm - N/A Fog Fog
5:05 AM 44.6 °F - 44.6 °F 100% 30.15 in 0.2 mi Calm Calm - N/A Fog Fog
5:41 AM 44.6 °F - 42.8 °F 93% 30.14 in 0.5 mi Calm Calm - N/A Fog Fog
5:53 AM 44.1 °F - 43.0 °F 96% 30.14 in 0.5 mi Calm Calm - N/A Fog Fog
6:37 AM 42.8 °F - 42.8 °F 100% 30.13 in 1.5 mi Calm Calm - 0.01 in   Overcast
6:53 AM 43.0 °F - 43.0 °F 100% 30.13 in 1.8 mi Calm Calm - 0.01 in   Overcast
6:59 AM 42.8 °F - 42.8 °F 100% 30.12 in 0.8 mi Calm Calm - N/A   Overcast
7:19 AM 42.8 °F - 42.8 °F 100% 30.11 in 0.2 mi Calm Calm - N/A Fog Fog
7:40 AM 42.8 °F - 41.0 °F 93% 30.10 in 0.5 mi Calm Calm - N/A Fog Fog
7:48 AM 42.8 °F - 42.8 °F 100% 30.10 in 0.2 mi Calm Calm - N/A Fog Fog
7:53 AM 42.1 °F - 42.1 °F 100% 30.10 in 0.2 mi Calm Calm - N/A Fog Fog
8:08 AM 42.8 °F - 42.8 °F 100% 30.10 in 0.8 mi Calm Calm - N/A   Mist
8:15 AM 44.6 °F - 42.8 °F 93% 30.10 in 1.5 mi Calm Calm - N/A   Overcast
8:23 AM 44.6 °F 43.1 °F 42.8 °F 93% 30.10 in 0.8 mi NW 3.5 mph - N/A   Overcast
8:34 AM 44.6 °F 42.2 °F 44.6 °F 100% 30.10 in 0.2 mi NW 4.6 mph - N/A Fog Fog
8:53 AM 44.1 °F 42.5 °F 44.1 °F 100% 30.10 in 0.8 mi NNW 3.5 mph - N/A   Overcast
9:01 AM 44.6 °F 43.1 °F 44.6 °F 100% 30.10 in 1.2 mi WNW 3.5 mph - N/A   Overcast
9:12 AM 44.6 °F - 44.6 °F 100% 30.09 in 2.0 mi Calm Calm - N/A   Overcast
9:24 AM 44.6 °F - 44.6 °F 100% 30.09 in 5.0 mi Calm Calm - N/A   Overcast
9:53 AM 46.0 °F - 45.0 °F 96% 30.08 in 9.0 mi Calm Calm - N/A   Mostly Cloudy
10:07 AM 46.4 °F - 44.6 °F 93% 30.08 in 10.0 mi Calm Calm - N/A   Scattered Clouds
10:53 AM 51.1 °F - 46.0 °F 83% 30.06 in 10.0 mi SW 3.5 mph - N/A   Clear
11:53 AM 55.9 °F - 43.0 °F 62% 30.03 in 10.0 mi WNW 4.6 mph - N/A   Clear
12:53 PM 61.0 °F - 43.0 °F 52% 30.00 in 10.0 mi Calm Calm - N/A   Clear
1:53 PM 63.0 °F - 43.0 °F 48% 29.97 in 10.0 mi Calm Calm - N/A   Clear
2:53 PM 66.0 °F - 43.0 °F 43% 29.95 in 10.0 mi Calm Calm - N/A   Clear
3:53 PM 66.0 °F - 43.0 °F 43% 29.92 in 10.0 mi East 5.8 mph - N/A   Clear
4:53 PM 66.0 °F - 43.0 °F 43% 29.91 in 10.0 mi ESE 4.6 mph - N/A   Clear
5:53 PM 64.0 °F - 44.1 °F 48% 29.90 in 10.0 mi ESE 3.5 mph - N/A   Clear
6:53 PM 61.0 °F - 46.0 °F 58% 29.90 in 10.0 mi Calm Calm - N/A   Mostly Cloudy
8:53 PM 61.0 °F - 48.9 °F 64% 29.93 in 10.0 mi ESE 4.6 mph - 0.00 in Rain Light Rain
9:53 PM 57.0 °F - 51.1 °F 81% 29.92 in 10.0 mi ESE 9.2 mph - 0.03 in   Scattered Clouds
10:53 PM 55.9 °F - 51.1 °F 84% 29.94 in 10.0 mi ESE 4.6 mph - N/A   Partly Cloudy
11:53 PM 57.0 °F - 52.0 °F 83% 29.94 in 10.0 mi SSE 3.5 mph - N/A   Overcast